E25WMA-7 Weather Reports


Display with metric or nautical units.
time (UTC)temp
F
wind
direction
speed
MPH
gust
MPH
rain 1hr
in
rain 24hr
in
rain mn
in
humidity
%
barometer
mb
20260505014416 89 0 0.0 0.0 0.00 0.00 0.00 57 1007.0
20260505012854 89 0 0.0 0.0 0.00 0.00 0.00 58 1007.0
20260505011332 89 0 0.0 0.0 0.00 0.00 0.00 57 1007.0
20260505005810 89 0 0.0 0.0 0.00 0.00 0.00 59 1007.0
20260505004248 89 0 0.0 0.0 0.00 0.00 0.00 59 1006.0
20260505002726 89 0 0.0 0.0 0.00 0.00 0.00 58 1006.0
20260505001203 89 0 0.0 0.0 0.00 0.00 0.00 58 1006.0
20260504235641 89 0 0.0 0.0 0.00 0.00 0.00 58 1006.0
20260504234119 90 0 0.0 0.0 0.00 0.00 0.00 57 1006.0
20260504232557 89 0 0.0 0.0 0.00 0.00 0.00 57 1006.0
20260504231036 90 0 0.0 0.0 0.00 0.00 0.00 57 1006.0
20260504225513 90 0 0.0 0.0 0.00 0.00 0.00 57 1005.0
20260504223951 90 0 0.0 0.0 0.00 0.00 0.00 56 1005.0
20260504222429 90 0 0.0 0.0 0.00 0.00 0.00 56 1005.0
20260504220907 90 0 0.0 0.0 0.00 0.00 0.00 56 1005.0
20260504215345 90 0 0.0 0.0 0.00 0.00 0.00 56 1005.0
20260504213823 91 0 0.0 0.0 0.00 0.00 0.00 56 1005.0
20260504212303 91 0 0.0 0.0 0.00 0.00 0.00 56 1005.0
20260504210739 91 0 0.0 0.0 0.00 0.00 0.00 56 1004.0
20260504205217 91 0 0.0 0.0 0.00 0.00 0.00 55 1004.0
20260504203655 91 0 0.0 0.0 0.00 0.00 0.00 55 1004.0
20260504203545 91 0 0.0 0.0 0.00 0.00 0.00 55 1004.0
20260504202023 91 0 0.0 0.0 0.00 0.00 0.00 55 1004.0
20260504200501 91 0 0.0 0.0 0.00 0.00 0.00 54 1004.0
20260504194708 92 0 0.0 0.0 0.00 0.00 0.00 54 1004.0
20260504193146 92 0 0.0 0.0 0.00 0.00 0.00 54 1004.0
20260504191624 92 0 0.0 0.0 0.00 0.00 0.00 53 1004.0
20260504184541 92 0 0.0 0.0 0.00 0.00 0.00 53 1004.0
20260504183018 92 0 0.0 0.0 0.00 0.00 0.00 52 1004.0
20260504181456 92 0 0.0 0.0 0.00 0.00 0.00 52 1004.0
20260504175934 92 0 0.0 0.0 0.00 0.00 0.00 52 1004.0
20260504174412 92 0 0.0 0.0 0.00 0.00 0.00 52 1004.0
20260504172850 93 0 0.0 0.0 0.00 0.00 0.00 51 1004.0
20260504171328 93 0 0.0 0.0 0.00 0.00 0.00 49 1004.0
20260504151005 95 0 0.0 0.0 0.00 0.00 0.00 46 1004.0
20260504140837 96 0 0.0 0.0 0.00 0.00 0.00 46 1003.0
20260504130709 98 0 0.0 0.0 0.00 0.00 0.00 44 1002.0
20260504110412 101 0 0.0 0.0 0.00 0.00 0.00 38 999.0
20260504100244 101 0 0.0 0.0 0.00 0.00 0.00 37 998.0
20260504090116 100 0 0.0 0.0 0.00 0.00 0.00 39 999.0
20260504081510 101 0 0.0 0.0 0.00 0.00 0.00 41 999.0
20260504045457 97 0 0.0 0.0 0.00 0.00 0.00 48 1004.0
20260504043935 97 0 0.0 0.0 0.00 0.00 0.00 49 1004.0
20260504042413 97 0 0.0 0.0 0.00 0.00 0.00 49 1004.0
20260504040851 96 0 0.0 0.0 0.00 0.00 0.00 50 1004.0
20260504035329 95 0 0.0 0.0 0.00 0.00 0.00 51 1004.0
20260504033807 95 0 0.0 0.0 0.00 0.00 0.00 51 1004.0
20260504032245 94 0 0.0 0.0 0.00 0.00 0.00 55 1004.0
20260504030723 95 0 0.0 0.0 0.00 0.00 0.00 52 1005.0
20260504025201 94 0 0.0 0.0 0.00 0.00 0.00 53 1005.0
20260504023639 94 0 0.0 0.0 0.00 0.00 0.00 54 1005.0
20260504022117 93 0 0.0 0.0 0.00 0.00 0.00 56 1005.0
20260504020555 93 0 0.0 0.0 0.00 0.00 0.00 56 1005.0
20260504015033 92 0 0.0 0.0 0.00 0.00 0.00 56 1005.0